| time (UTC) | temp C | wind direction | speed KPH | gust KPH | rain 1hr cm | rain 24hr cm | rain mn cm | humidity % | barometer mb |
| 20260510115229 | 19 | 180 | 0.0 | 0.0 | 0.00 | 0.25 | 0.00 | 95 | 1004.9 |
| 20260510114328 | 20 | 180 | 0.0 | 0.0 | 0.00 | 0.25 | 0.00 | 95 | 1004.9 |
| 20260510113328 | 20 | 157 | 0.0 | 0.0 | 0.00 | 0.25 | 0.00 | 96 | 1004.9 |
| 20260510112427 | 20 | 180 | 0.0 | 3.2 | 0.00 | 0.25 | 0.00 | 96 | 1004.9 |
| 20260510111427 | 20 | 180 | 0.0 | 0.0 | 0.00 | 0.25 | 0.00 | 96 | 1004.5 |
| 20260510110428 | 20 | 166 | 3.2 | 9.7 | 0.00 | 0.25 | 0.00 | 96 | 1004.3 |
| 20260510105429 | 20 | 177 | 1.6 | 8.0 | 0.00 | 0.25 | 0.00 | 97 | 1004.5 |
| 20260510104428 | 20 | 155 | 3.2 | 8.0 | 0.00 | 0.25 | 0.00 | 97 | 1004.2 |
| 20260510103429 | 20 | 180 | 1.6 | 6.4 | 0.00 | 0.25 | 0.00 | 97 | 1004.2 |
| 20260510102428 | 20 | 180 | 0.0 | 4.8 | 0.00 | 0.25 | 0.00 | 96 | 1004.2 |
| 20260510101428 | 20 | 172 | 0.0 | 4.8 | 0.00 | 0.25 | 0.00 | 96 | 1004.2 |
| 20260510100429 | 20 | 205 | 1.6 | 4.8 | 0.00 | 0.25 | 0.00 | 96 | 1004.2 |
| 20260510093430 | 19 | 180 | 3.2 | 6.4 | 0.00 | 0.25 | 0.00 | 96 | 1004.2 |
| 20260510091529 | 19 | 180 | 1.6 | 3.2 | 0.00 | 0.25 | 0.00 | 96 | 1004.2 |
| 20260510090627 | 19 | 180 | 3.2 | 8.0 | 0.00 | 0.25 | 0.00 | 96 | 1004.2 |
| 20260510085631 | 19 | 135 | 0.0 | 0.0 | 0.00 | 0.25 | 0.00 | 97 | 1004.5 |
| 20260510084627 | 19 | 157 | 0.0 | 1.6 | 0.00 | 0.25 | 0.00 | 97 | 1004.5 |
| 20260510083629 | 19 | 157 | 0.0 | 0.0 | 0.00 | 0.25 | 0.00 | 97 | 1004.5 |
| 20260510082727 | 19 | 157 | 0.0 | 0.0 | 0.00 | 0.25 | 0.00 | 97 | 1004.5 |
| 20260510080826 | 20 | 157 | 0.0 | 0.0 | 0.00 | 0.25 | 0.00 | 96 | 1004.9 |
| 20260510075827 | 20 | 157 | 0.0 | 0.0 | 0.00 | 0.25 | 0.00 | 96 | 1004.2 |
| 20260510074829 | 20 | 180 | 0.0 | 0.0 | 0.00 | 0.25 | 0.00 | 95 | 1004.5 |
| 20260510073827 | 20 | 180 | 0.0 | 0.0 | 0.00 | 0.25 | 0.00 | 93 | 1004.2 |
| 20260510072828 | 20 | 180 | 0.0 | 3.2 | 0.00 | 0.25 | 0.00 | 93 | 1004.2 |
| 20260510071828 | 20 | 180 | 3.2 | 4.8 | 0.00 | 0.25 | 0.00 | 92 | 1004.2 |
| 20260510070828 | 20 | 157 | 0.0 | 0.0 | 0.00 | 0.25 | 0.00 | 91 | 1004.5 |
| 20260510065927 | 20 | 180 | 0.0 | 0.0 | 0.00 | 0.25 | 0.00 | 92 | 1004.2 |
| 20260510065828 | 20 | 180 | 0.0 | 0.0 | 0.00 | 0.25 | 0.00 | 92 | 1004.2 |
| 20260510064828 | 21 | 180 | 0.0 | 0.0 | 0.00 | 0.25 | 0.00 | 92 | 1004.2 |
| 20260510063927 | 21 | 180 | 0.0 | 0.0 | 0.00 | 0.25 | 0.00 | 91 | 1004.2 |
| 20260510062929 | 21 | 180 | 0.0 | 0.0 | 0.00 | 0.25 | 0.00 | 91 | 1004.2 |
| 20260510061929 | 21 | 180 | 0.0 | 0.0 | 0.00 | 0.25 | 0.00 | 90 | 1004.2 |
| 20260510060928 | 21 | 157 | 0.0 | 0.0 | 0.00 | 0.25 | 0.00 | 89 | 1004.2 |
| 20260510055929 | 21 | 157 | 0.0 | 0.0 | 0.00 | 0.25 | 0.00 | 89 | 1003.8 |
| 20260510054929 | 21 | 157 | 1.6 | 3.2 | 0.00 | 0.25 | 0.00 | 90 | 1003.8 |
| 20260510053929 | 21 | 157 | 0.0 | 0.0 | 0.00 | 0.25 | 0.00 | 91 | 1004.2 |
| 20260510053027 | 21 | 157 | 0.0 | 0.0 | 0.00 | 0.25 | 0.00 | 94 | 1004.2 |
| 20260510051027 | 21 | 157 | 0.0 | 0.0 | 0.00 | 0.25 | 0.00 | 93 | 1004.2 |
| 20260510050127 | 21 | 157 | 0.0 | 0.0 | 0.00 | 0.25 | 0.00 | 92 | 1003.8 |
| 20260510045109 | 22 | 157 | 0.0 | 0.0 | 0.00 | 0.25 | 0.25 | 92 | 1003.5 |
| 20260510044106 | 22 | 157 | 0.0 | 0.0 | 0.00 | 0.25 | 0.25 | 91 | 1003.5 |
| 20260510043106 | 22 | 157 | 0.0 | 0.0 | 0.00 | 0.25 | 0.25 | 91 | 1003.8 |
| 20260510042107 | 22 | 157 | 0.0 | 0.0 | 0.00 | 0.25 | 0.25 | 91 | 1003.5 |
| 20260510041106 | 22 | 157 | 0.0 | 0.0 | 0.00 | 0.25 | 0.25 | 92 | 1003.2 |
| 20260510040109 | 22 | 157 | 0.0 | 0.0 | 0.00 | 0.25 | 0.25 | 92 | 1003.2 |
| 20260510035205 | 22 | 157 | 0.0 | 0.0 | 0.00 | 0.25 | 0.25 | 91 | 1003.2 |
| 20260510034206 | 22 | 157 | 0.0 | 0.0 | 0.00 | 0.25 | 0.25 | 92 | 1003.2 |
| 20260510033208 | 22 | 157 | 0.0 | 0.0 | 0.00 | 0.25 | 0.25 | 91 | 1003.2 |
| 20260510032208 | 23 | 157 | 0.0 | 0.0 | 0.00 | 0.25 | 0.25 | 90 | 1002.8 |
| 20260510031208 | 23 | 157 | 0.0 | 0.0 | 0.00 | 0.25 | 0.25 | 87 | 1002.8 |
| 20260510025207 | 24 | 157 | 0.0 | 0.0 | 0.00 | 0.25 | 0.25 | 87 | 1002.4 |
| 20260510024208 | 24 | 157 | 0.0 | 0.0 | 0.00 | 0.25 | 0.25 | 87 | 1002.1 |
| 20260510023307 | 24 | 135 | 0.0 | 0.0 | 0.00 | 0.25 | 0.25 | 85 | 1002.1 |
| 20260510022308 | 25 | 180 | 0.0 | 0.0 | 0.00 | 0.25 | 0.25 | 85 | 1002.1 |
| 20260510021407 | 25 | 180 | 0.0 | 0.0 | 0.00 | 0.25 | 0.25 | 83 | 1002.1 |
| 20260510020408 | 25 | 180 | 0.0 | 3.2 | 0.00 | 0.25 | 0.25 | 83 | 1001.7 |
| 20260510014407 | 26 | 180 | 1.6 | 6.4 | 0.00 | 0.25 | 0.25 | 79 | 1001.4 |
| 20260510013408 | 26 | 135 | 0.0 | 0.0 | 0.00 | 0.25 | 0.25 | 76 | 1001.4 |
| 20260510012507 | 26 | 135 | 0.0 | 0.0 | 0.00 | 0.25 | 0.25 | 72 | 1001.4 |
| 20260510011510 | 27 | 135 | 0.0 | 0.0 | 0.00 | 0.25 | 0.25 | 70 | 1001.1 |
| 20260510010508 | 27 | 135 | 0.0 | 0.0 | 0.00 | 0.25 | 0.25 | 69 | 1000.7 |
| 20260510005507 | 27 | 135 | 0.0 | 0.0 | 0.00 | 0.25 | 0.25 | 68 | 1000.7 |
| 20260510003506 | 28 | 135 | 1.6 | 4.8 | 0.00 | 0.25 | 0.25 | 65 | 1000.4 |
| 20260510002510 | 29 | 135 | 1.6 | 6.4 | 0.00 | 0.25 | 0.25 | 64 | 1000.0 |
| 20260510001607 | 30 | 135 | 0.0 | 0.0 | 0.00 | 0.25 | 0.25 | 63 | 1000.0 |
| 20260509235706 | 30 | 157 | 0.0 | 0.0 | 0.00 | 0.25 | 0.25 | 59 | 999.4 |
| 20260509234708 | 31 | 157 | 0.0 | 0.0 | 0.00 | 0.25 | 0.25 | 58 | 999.4 |
| 20260509232807 | 31 | 167 | 0.0 | 1.6 | 0.00 | 0.25 | 0.25 | 56 | 999.4 |
| 20260509231809 | 31 | 180 | 0.0 | 1.6 | 0.00 | 0.25 | 0.25 | 59 | 999.4 |
| 20260509230906 | 31 | 180 | 0.0 | 1.6 | 0.00 | 0.25 | 0.25 | 55 | 999.4 |
| 20260509223909 | 31 | 270 | 0.0 | 0.0 | 0.00 | 0.25 | 0.25 | 53 | 999.4 |
| 20260509222908 | 31 | 270 | 0.0 | 0.0 | 0.00 | 0.25 | 0.25 | 51 | 999.4 |
| 20260509221907 | 32 | 270 | 0.0 | 0.0 | 0.00 | 0.25 | 0.25 | 50 | 999.0 |
| 20260509220007 | 31 | 180 | 0.0 | 0.0 | 0.00 | 0.25 | 0.25 | 47 | 999.4 |
| 20260509215106 | 30 | 157 | 0.0 | 0.0 | 0.00 | 0.25 | 0.25 | 50 | 999.4 |
| 20260509214105 | 30 | 157 | 0.0 | 1.6 | 0.00 | 0.25 | 0.25 | 50 | 999.7 |
| 20260509213106 | 30 | 157 | 0.0 | 3.2 | 0.00 | 0.25 | 0.25 | 55 | 1000.4 |
| 20260509210108 | 27 | 157 | 0.0 | 0.0 | 0.00 | 0.25 | 0.25 | 64 | 1000.7 |
| 20260509205206 | 27 | 176 | 0.0 | 6.4 | 0.08 | 0.25 | 0.25 | 69 | 1000.4 |
| 20260509204305 | 26 | 180 | 0.0 | 0.0 | 0.25 | 0.25 | 0.25 | 77 | 1000.7 |
| 20260509203308 | 25 | 174 | 1.6 | 8.0 | 0.25 | 0.25 | 0.25 | 77 | 1001.5 |
| 20260509201306 | 21 | 135 | 0.0 | 0.0 | 0.25 | 0.25 | 0.25 | 92 | 1003.2 |
| 20260509200307 | 21 | 148 | 3.2 | 8.0 | 0.25 | 0.25 | 0.25 | 91 | 1003.5 |
| 20260509194305 | 25 | 55 | 4.8 | 8.0 | 0.00 | 0.00 | 0.00 | 68 | 1001.5 |
| 20260509193307 | 29 | 157 | 0.0 | 0.0 | 0.00 | 0.00 | 0.00 | 70 | 1000.5 |
| 20260509192406 | 30 | 286 | 0.0 | 0.0 | 0.00 | 0.00 | 0.00 | 63 | 1000.4 |
| 20260509191407 | 31 | 180 | 0.0 | 0.0 | 0.00 | 0.00 | 0.00 | 63 | 1000.7 |
| 20260509190408 | 31 | 157 | 0.0 | 0.0 | 0.00 | 0.00 | 0.00 | 63 | 1000.7 |
| 20260509185405 | 31 | 289 | 0.0 | 4.8 | 0.00 | 0.00 | 0.00 | 61 | 1000.0 |
| 20260509183506 | 31 | 157 | 0.0 | 0.0 | 0.00 | 0.00 | 0.00 | 62 | 1000.7 |
| 20260509181507 | 29 | 286 | 1.6 | 4.8 | 0.00 | 0.00 | 0.00 | 68 | 1001.4 |
| 20260509180506 | 30 | 252 | 0.0 | 8.0 | 0.00 | 0.00 | 0.00 | 69 | 1001.4 |
| 20260509180405 | 30 | 315 | 0.0 | 0.0 | 0.00 | 0.00 | 0.00 | 68 | 1001.4 |
| 20260509175407 | 30 | 292 | 0.0 | 0.0 | 0.00 | 0.00 | 0.00 | 69 | 1001.4 |
| 20260509174506 | 29 | 302 | 1.6 | 6.4 | 0.00 | 0.00 | 0.00 | 70 | 1002.1 |
| 20260509173508 | 28 | 148 | 0.0 | 3.2 | 0.00 | 0.00 | 0.00 | 72 | 1002.4 |
| 20260509172508 | 28 | 331 | 4.8 | 9.7 | 0.00 | 0.00 | 0.00 | 72 | 1002.8 |
| 20260509170506 | 27 | 337 | 0.0 | 8.0 | 0.00 | 0.00 | 0.00 | 79 | 1002.4 |
| 20260509164505 | 27 | 184 | 0.0 | 3.2 | 0.00 | 0.00 | 0.00 | 86 | 1002.8 |
| 20260509163604 | 26 | 179 | 4.8 | 8.0 | 0.00 | 0.00 | 0.00 | 88 | 1003.2 |
| 20260509162607 | 26 | 176 | 1.6 | 8.0 | 0.00 | 0.00 | 0.00 | 86 | 1002.8 |
| 20260509161706 | 26 | 295 | 1.6 | 6.4 | 0.00 | 0.00 | 0.00 | 88 | 1003.2 |
| 20260509160709 | 25 | 178 | 0.0 | 4.8 | 0.00 | 0.00 | 0.00 | 92 | 1003.2 |
| 20260509154807 | 25 | 162 | 1.6 | 4.8 | 0.00 | 0.00 | 0.00 | 97 | 1003.2 |
| 20260509153906 | 24 | 168 | 3.2 | 8.0 | 0.00 | 0.00 | 0.00 | 98 | 1003.5 |
| 20260509152908 | 23 | 165 | 3.2 | 9.7 | 0.00 | 0.00 | 0.00 | 96 | 1003.5 |
| 20260509152005 | 23 | 164 | 0.0 | 1.6 | 0.00 | 0.00 | 0.00 | 96 | 1003.8 |
| 20260509151005 | 23 | 171 | 1.6 | 6.4 | 0.00 | 0.00 | 0.00 | 91 | 1003.5 |
| 20260509150007 | 23 | 173 | 0.0 | 1.6 | 0.00 | 0.00 | 0.00 | 88 | 1003.5 |
| 20260509145008 | 22 | 173 | 3.2 | 8.0 | 0.00 | 0.00 | 0.00 | 70 | 1003.8 |
| 20260509144105 | 22 | 180 | 0.0 | 0.0 | 0.00 | 0.00 | 0.00 | 65 | 1003.5 |
| 20260509143107 | 22 | 157 | 0.0 | 0.0 | 0.00 | 0.00 | 0.00 | 66 | 1003.5 |
| 20260509142205 | 22 | 173 | 1.6 | 8.0 | 0.00 | 0.00 | 0.00 | 63 | 1003.2 |
| 20260509141207 | 22 | 180 | 0.0 | 1.6 | 0.00 | 0.00 | 0.00 | 60 | 1003.1 |
| 20260509135207 | 22 | 180 | 0.0 | 4.8 | 0.00 | 0.00 | 0.00 | 46 | 1003.5 |
| 20260509134210 | 21 | 22 | 0.0 | 0.0 | 0.00 | 0.00 | 0.00 | 46 | 1003.8 |
| 20260509133305 | 21 | 22 | 0.0 | 3.2 | 0.00 | 0.00 | 0.00 | 46 | 1003.8 |
| 20260509132307 | 21 | 338 | 6.4 | 9.7 | 0.00 | 0.00 | 0.00 | 45 | 1003.8 |
| 20260509131307 | 21 | 22 | 0.0 | 3.2 | 0.00 | 0.00 | 0.00 | 45 | 1003.8 |
| 20260509130305 | 21 | 360 | 0.0 | 0.0 | 0.00 | 0.00 | 0.00 | 46 | 1003.6 |
| 20260509125308 | 21 | 112 | 0.0 | 0.0 | 0.00 | 0.00 | 0.00 | 46 | 1003.5 |
| 20260509124305 | 21 | 112 | 0.0 | 0.0 | 0.00 | 0.00 | 0.00 | 47 | 1003.5 |
| 20260509123306 | 21 | 112 | 0.0 | 0.0 | 0.00 | 0.00 | 0.00 | 48 | 1003.5 |
| 20260509122307 | 21 | 45 | 0.0 | 0.0 | 0.00 | 0.00 | 0.00 | 48 | 1003.5 |
| 20260509121306 | 21 | 45 | 0.0 | 0.0 | 0.00 | 0.00 | 0.00 | 50 | 1003.7 |